Temp
8 9 9 9 8 9 8 8 7 7 7 6 5 6 5 5 5 5 5 5 5 4 4 4 4 5 5 6 6 5 4 4 3 3 3 3 3 3
8 8 9 8 8 8 8 6 6 5 5 5 5 5 5 5 4 4 4 4 3 3 3 3 3 4 4 4 4 3 4 3 3 2 3 2 2 2
7 7 7 7 7 7 7 7 6 5 5 4 5 4 4 4 4 4 4 3 2 1 2 1 2 3 2 3 3 3 3 2 2 2 1 1 0 0
7 7 7 6 7 6 6 5 4 4 4 4 4 4 4 4 3 3 3 3 2 1 1 1 2 1 2 2 2 2 2 2 2 1 1 -0 -1 -1
6 6 6 6 6 5 4 4 4 4 4 4 4 3 3 3 2 1 2 2 2 2 2 2 2 1 1 1 2 2 1 1 1 0 0 -0 -0 -0
5 5 5 5 4 4 4 4 4 4 3 3 3 3 2 2 1 1 1 1 1 1 0 0 1 0 0 0 1 1 0 -0 -0 -0 -1 -0 -0 -0
4 4 4 4 3 3 4 4 3 3 3 2 2 2 1 1 1 1 -0 -0 -0 -0 0 -0 0 -0 0 0 0 0 -0 -1 -1 -1 -1 -1 -1 -2
3 3 3 3 3 3 3 3 3 3 3 2 1 0 0 0 0 0 -1 -1 -3 -1 -1 -1 -1 -1 -1 -1 -1 -1 -1 -1 -2 -2 -2 -3 -3 -3
2 2 2 2 3 3 3 3 2 2 2 1 1 0 -0 0 -1 -1 -1 -2 -3 -2 -2 -2 -2 -2 -2 -2 -2 -2 -2 -2 -2 -2 -2 -2 -2 -2
2 2 2 2 2 2 2 2 2 2 1 1 1 0 0 -1 -1 -1 -2 -2 -2 -2 -2 -2 -3 -3 -2 -2 -2 -2 -2 -2 -2 -2 -2 -2 -2 -2
2 2 2 2 1 2 2 1 1 1 1 0 -0 -0 -1 -1 -1 -1 -2 -3 -4 -4 -3 -3 -3 -2 -2 -2 -2 -2 -2 -2 -2 -2 -2 -2 -2 -2
1 1 1 1 1 1 1 1 0 0 0 -0 -1 -1 -1 -1 -2 -2 -2 -3 -3 -4 -3 -3 -3 -3 -2 -2 -2 -2 -2 -2 -2 -2 -2 -2 -2 -2
1 1 1 1 1 1 0 0 0 -0 -1 -1 -2 -2 -2 -2 -2 -3 -3 -3 -3 -3 -3 -3 -3 -3 -3 -2 -2 -3 -3 -3 -2 -2 -2 -2 -3 -2
0 1 1 1 1 1 1 1 -0 -1 -2 -2 -2 -2 -2 -3 -3 -3 -3 -3 -3 -4 -4 -4 -4 -4 -4 -4 -3 -4 -3 -3 -3 -3 -3 -3 -3 -3
-0 0 1 0 0 0 0 -0 -1 -2 -2 -2 -2 -2 -3 -3 -4 -4 -3 -3 -4 -4 -4 -4 -4 -4 -5 -5 -4 -4 -4 -3 -4 -3 -4 -4 -4 -3
0 -0 0 0 -0 -0 -0 -1 -1 -2 -2 -2 -2 -3 -3 -4 -4 -4 -4 -4 -4 -4 -4 -5 -5 -5 -5 -5 -5 -4 -5 -5 -5 -5 -5 -4 -4 -4
-1 -0 -0 -0 -1 -1 -1 -1 -1 -1 -2 -2 -2 -3 -3 -4 -4 -4 -4 -5 -5 -5 -5 -5 -5 -5 -5 -6 -5 -5 -5 -5 -6 -6 -6 -5 -4 -4
-1 -0 -0 -1 -1 -1 -1 -1 -1 -1 -2 -2 -2 -3 -3 -4 -4 -5 -5 -5 -5 -6 -6 -7 -7 -6 -6 -5 -5 -5 -6 -6 -7 -7 -6 -6 -5 -5
-0 -0 -0 -0 -0 -1 -1 -1 -1 -1 -2 -2 -2 -3 -3 -4 -5 -5 -6 -5 -5 -5 -6 -8 -8 -8 -9 -7 -6 -7 -7 -7 -8 -7 -7 -8 -7 -6
-0 -0 -0 -0 -1 -1 -1 -2 -2 -2 -2 -2 -3 -3 -3 -4 -5 -5 -6 -6 -6 -6 -7 -8 -8 -8 -9 -8 -9 -6 -8 -8 -8 -8 -7 -8 -8 -7
-0 -0 -0 -1 -1 -1 -2 -2 -2 -2 -2 -3 -3 -3 -3 -4 -4 -5 -6 -6 -7 -7 -7 -7 -8 -10 -10 -10 -9 -6 -6 -8 -8 -9 -8 -9 -8 -7
-1 -0 -1 -1 -1 -1 -2 -2 -2 -3 -3 -3 -3 -3 -3 -4 -4 -5 -5 -6 -6 -7 -7 -7 -8 -8 -9 -9 -9 -8 -7 -7 -8 -8 -9 -9 -8 -9
-1 -1 -1 -1 -1 -2 -2 -2 -2 -3 -3 -3 -3 -3 -4 -4 -4 -5 -5 -6 -6 -7 -7 -8 -8 -8 -9 -10 -10 -9 -9 -8 -8 -8 -7 -8 -8 -8
Height
1522 1523 1524 1525 1526 1525 1525 1526 1528 1527 1529 1524 1525 1524 1522 1521 1520 1519 1518 1518 1517 1516 1517 1517 1518 1518 1519 1520 1522 1525 1526 1527 1530 1530 1530 1532 1532 1533
1518 1518 1518 1519 1520 1520 1520 1520 1520 1521 1523 1521 1521 1520 1519 1517 1517 1516 1515 1516 1516 1515 1515 1516 1517 1517 1518 1519 1520 1521 1523 1524 1525 1526 1527 1527 1528 1528
1512 1512 1514 1514 1514 1514 1516 1515 1515 1515 1517 1518 1518 1518 1517 1515 1514 1513 1513 1512 1514 1514 1513 1514 1514 1515 1515 1517 1517 1518 1519 1520 1520 1521 1521 1522 1522 1523
1508 1508 1509 1511 1509 1510 1511 1512 1512 1512 1513 1514 1515 1515 1515 1513 1511 1512 1511 1511 1512 1512 1512 1512 1512 1512 1512 1513 1513 1514 1514 1515 1515 1516 1516 1517 1518 1519
1504 1504 1504 1506 1507 1508 1508 1509 1510 1510 1511 1510 1512 1511 1511 1511 1510 1510 1510 1510 1510 1510 1510 1510 1509 1509 1509 1509 1509 1510 1511 1511 1512 1512 1513 1513 1514 1515
1499 1500 1502 1502 1505 1505 1507 1508 1508 1508 1507 1507 1508 1509 1508 1509 1509 1508 1507 1508 1508 1508 1508 1507 1507 1507 1507 1507 1507 1507 1507 1507 1508 1508 1508 1509 1510 1511
1496 1498 1501 1501 1503 1505 1504 1505 1505 1505 1504 1504 1506 1506 1507 1506 1507 1506 1506 1506 1505 1506 1505 1504 1505 1505 1504 1504 1503 1503 1503 1504 1504 1504 1505 1506 1507 1508
1495 1497 1500 1500 1501 1503 1502 1502 1503 1502 1502 1503 1505 1504 1504 1505 1504 1504 1504 1504 1505 1503 1502 1502 1501 1501 1500 1500 1500 1499 1500 1500 1501 1501 1502 1503 1503 1505
1493 1495 1497 1500 1501 1501 1500 1500 1500 1499 1500 1502 1502 1502 1502 1502 1503 1502 1502 1502 1502 1501 1501 1499 1499 1499 1498 1498 1497 1497 1497 1498 1498 1499 1500 1501 1502 1502
1492 1493 1496 1497 1499 1499 1498 1497 1498 1498 1499 1499 1500 1500 1500 1500 1500 1500 1500 1500 1500 1499 1499 1498 1498 1497 1497 1496 1496 1496 1496 1496 1497 1497 1498 1498 1499 1499
1491 1493 1495 1496 1498 1497 1497 1496 1496 1497 1497 1498 1499 1498 1499 1499 1499 1499 1499 1499 1499 1498 1498 1497 1497 1496 1495 1495 1494 1494 1494 1494 1494 1495 1495 1495 1495 1496
1490 1492 1494 1496 1496 1495 1495 1495 1495 1496 1496 1497 1498 1498 1498 1498 1498 1498 1497 1497 1497 1497 1496 1497 1495 1495 1494 1492 1492 1491 1491 1491 1491 1491 1491 1491 1491 1491
1490 1491 1492 1493 1494 1493 1493 1494 1494 1495 1495 1496 1496 1496 1496 1496 1497 1496 1496 1495 1495 1495 1493 1494 1492 1492 1491 1490 1489 1488 1488 1488 1487 1487 1486 1486 1486 1486
1488 1489 1490 1491 1491 1492 1491 1492 1493 1493 1494 1495 1495 1495 1494 1494 1494 1494 1493 1493 1492 1492 1491 1490 1489 1489 1488 1486 1485 1484 1484 1484 1483 1482 1482 1481 1481 1481
1486 1486 1487 1488 1489 1489 1489 1490 1491 1492 1492 1492 1492 1492 1492 1492 1491 1491 1490 1489 1489 1488 1487 1487 1486 1485 1484 1483 1481 1480 1480 1480 1479 1478 1477 1476 1476 1475
1484 1485 1485 1486 1486 1487 1487 1488 1489 1489 1489 1489 1489 1489 1489 1489 1488 1487 1486 1485 1484 1484 1483 1482 1482 1482 1481 1480 1478 1477 1476 1476 1475 1474 1473 1472 1471 1470
1481 1482 1482 1483 1483 1484 1485 1485 1485 1485 1486 1486 1486 1486 1485 1485 1484 1483 1482 1481 1480 1480 1479 1479 1478 1477 1476 1475 1473 1472 1472 1471 1470 1469 1468 1466 1466 1465
1478 1478 1478 1479 1480 1480 1481 1481 1481 1481 1482 1482 1481 1481 1481 1481 1480 1480 1479 1477 1476 1476 1475 1474 1474 1473 1471 1471 1470 1468 1467 1466 1466 1464 1463 1461 1460 1460
1472 1473 1474 1474 1475 1476 1477 1477 1477 1477 1477 1477 1477 1477 1477 1476 1476 1475 1474 1473 1472 1471 1470 1470 1469 1468 1466 1465 1466 1464 1462 1462 1461 1459 1458 1456 1453 1453
1467 1468 1468 1469 1470 1471 1471 1471 1472 1472 1472 1472 1472 1472 1472 1471 1470 1470 1469 1468 1468 1467 1466 1465 1464 1463 1462 1461 1459 1459 1458 1456 1455 1453 1452 1450 1448 1446
1461 1462 1463 1463 1464 1465 1465 1466 1466 1467 1467 1466 1466 1466 1466 1466 1465 1464 1464 1464 1463 1462 1460 1460 1460 1459 1457 1455 1452 1451 1452 1451 1449 1447 1445 1443 1440 1438
1455 1455 1456 1457 1457 1458 1459 1459 1459 1460 1460 1460 1460 1460 1460 1459 1459 1459 1458 1457 1456 1456 1454 1454 1453 1452 1450 1448 1446 1445 1444 1443 1443 1441 1439 1438 1435 1431
1448 1448 1449 1449 1450 1450 1451 1451 1452 1453 1453 1453 1453 1453 1453 1453 1453 1452 1451 1450 1450 1449 1449 1448 1447 1445 1443 1442 1440 1438 1436 1435 1434 1432 1431 1431 1429 1427
Wind_Speed
19 21 22 22 21 21 17 19 20 18 16 20 20 17 14 14 15 13 15 12 11 13 14 11 5 4 11 18 18 17 13 14 17 21 20 18 17 22
18 18 20 22 22 21 22 23 21 16 15 15 16 15 14 14 16 15 12 10 10 11 9 6 6 9 11 12 10 10 14 16 15 17 21 25 24 25
19 20 20 19 20 18 18 16 15 12 14 17 15 13 13 15 12 11 9 9 10 10 8 8 7 10 12 15 16 17 17 18 19 20 18 16 14 13
17 17 16 16 15 14 13 13 11 10 12 13 12 13 13 13 11 9 6 7 9 8 11 11 12 13 14 16 17 16 17 17 16 15 14 14 14 14
17 16 15 13 12 11 9 8 8 8 9 12 11 11 11 11 8 9 7 8 9 10 11 12 12 11 12 13 14 15 15 14 14 12 12 14 15 15
14 13 12 11 10 9 9 8 8 8 8 8 8 8 8 7 6 6 6 8 8 8 10 10 11 11 12 13 14 15 14 12 12 13 12 14 14 15
11 11 11 10 9 10 9 9 9 8 8 7 7 7 7 6 6 7 7 8 10 9 10 11 10 11 13 13 15 15 15 15 15 15 15 13 11 10
10 9 8 8 9 9 9 9 8 7 7 7 7 6 8 7 7 7 8 7 4 9 8 9 11 10 11 11 10 12 13 12 11 10 10 10 9 9
9 9 8 7 7 7 7 6 7 7 7 7 7 7 7 7 6 6 6 5 6 9 7 5 6 6 6 6 6 6 7 7 8 8 9 9 10 10
8 7 8 7 7 6 5 4 4 4 4 5 6 5 5 5 5 4 4 3 4 4 4 2 6 5 6 7 6 7 7 7 8 9 10 12 13 13
8 8 7 7 6 6 5 4 3 3 2 3 3 2 2 3 2 2 3 3 2 6 6 5 6 7 8 8 9 9 9 10 10 11 12 14 14 15
8 8 8 8 6 5 5 4 4 3 2 2 2 2 2 2 3 4 4 4 5 5 7 7 8 8 5 8 8 9 9 9 9 11 12 13 15 16
8 8 8 7 6 6 6 5 5 4 3 3 3 4 4 5 6 6 8 8 9 9 13 11 11 11 9 12 11 11 13 14 15 16 17 18 18 19
9 8 8 7 7 7 7 6 7 7 5 5 5 6 7 8 9 10 11 12 12 12 13 14 15 13 14 15 15 13 12 12 14 15 16 17 19 21
10 9 8 8 8 8 8 8 8 8 8 8 8 9 9 11 12 13 13 14 13 12 12 13 14 14 15 16 18 18 17 14 15 14 11 14 15 16
10 10 10 9 9 10 9 9 10 10 10 10 10 11 12 13 14 14 14 14 14 13 11 12 13 14 16 17 18 19 17 16 16 16 17 18 19 18
12 12 12 12 12 12 12 12 12 12 12 12 13 13 14 15 16 15 14 15 15 14 14 13 13 14 16 17 20 20 19 19 18 18 20 21 19 18
16 16 15 15 15 14 15 14 14 14 14 14 14 14 15 16 17 17 16 16 16 16 16 15 15 16 17 18 18 18 17 18 18 19 18 21 23 20
20 19 18 17 17 17 17 17 16 15 15 16 15 16 16 17 17 17 17 17 17 17 17 16 17 17 19 21 18 20 20 16 18 21 21 22 25 23
23 22 21 19 19 19 19 18 18 18 18 17 17 17 17 18 19 19 18 18 18 17 18 17 18 19 20 20 21 21 22 25 23 23 23 22 24 24
25 24 23 22 22 21 21 21 20 20 20 20 19 18 17 18 19 19 20 20 19 20 21 20 18 16 19 20 25 24 22 21 22 24 23 23 25 25
27 27 25 25 24 24 24 24 23 23 22 21 20 19 18 18 21 21 21 22 22 22 22 21 21 22 23 24 26 26 25 22 21 22 23 23 23 25
29 29 28 27 26 26 26 27 26 25 25 23 22 20 18 21 23 23 23 23 24 24 24 24 23 23 24 24 24 26 27 25 22 21 21 19 21 22
Wind_Direction
254 251 257 261 259 256 265 272 274 274 268 269 270 277 281 291 296 297 301 295 287 283 291 299 267 294 224 215 213 218 230 252 264 292 266 249 249 248
253 249 250 255 256 260 266 267 262 246 244 253 263 279 288 298 298 294 291 288 300 296 299 284 247 238 241 251 259 263 268 273 280 272 262 270 271 275
256 257 256 255 255 261 261 261 253 244 235 253 269 278 288 298 299 304 293 284 275 278 277 288 288 277 265 262 264 270 274 278 276 273 273 271 272 269
253 251 252 255 256 254 254 251 250 237 236 255 261 265 277 289 297 297 291 287 286 282 277 273 278 271 271 272 274 277 279 272 267 265 261 254 248 237
253 250 248 241 238 238 236 226 229 231 242 256 262 263 276 291 284 277 276 275 273 275 278 281 283 283 280 275 272 269 268 267 263 258 258 261 263 261
240 233 224 223 225 223 220 228 241 237 240 248 254 269 281 281 283 283 285 279 279 280 279 276 274 274 272 269 266 265 261 259 259 261 258 256 256 253
222 212 217 220 217 215 218 224 228 231 236 252 255 263 271 271 264 280 272 284 293 287 282 284 279 278 275 272 271 274 275 271 268 267 268 263 256 246
194 199 209 202 211 223 230 238 242 247 248 249 254 245 260 265 271 275 276 280 266 296 294 289 295 287 288 284 280 271 267 267 269 267 258 250 244 238
188 194 209 222 225 231 233 234 248 253 248 247 239 239 257 272 279 275 279 280 264 283 303 290 303 295 303 296 287 278 269 262 258 256 256 257 258 253
203 208 219 226 233 233 241 234 235 237 238 239 247 254 265 267 269 272 276 285 291 307 314 288 293 289 296 292 284 271 262 262 262 263 266 260 262 262
214 216 220 229 231 236 228 225 232 237 245 256 261 259 260 269 283 268 270 290 314 300 308 292 290 296 292 285 281 272 272 272 269 265 267 267 264 266
218 218 225 237 234 224 212 209 226 250 249 247 257 279 287 294 288 284 290 287 287 294 289 280 292 300 294 287 276 278 276 274 272 273 274 274 270 264
221 222 226 233 232 224 217 215 228 233 234 254 276 287 292 292 287 289 291 291 288 276 286 293 293 293 280 284 285 283 280 279 279 278 275 273 271 270
224 227 231 231 230 228 227 232 229 226 240 254 266 277 285 288 287 288 289 289 288 284 284 289 289 289 289 291 292 287 286 291 288 281 280 278 273 270
232 234 239 237 235 230 231 232 233 236 246 255 265 272 277 281 285 287 287 286 283 283 280 276 278 283 285 286 290 293 299 296 293 288 288 285 284 279
242 244 245 245 248 247 247 246 245 247 254 263 270 276 280 282 283 286 287 287 287 288 282 275 275 279 283 286 289 293 298 294 293 294 289 286 288 284
251 250 249 250 252 254 254 254 255 256 262 265 270 276 282 285 287 288 288 287 285 287 285 281 278 279 282 286 287 293 295 292 296 294 291 288 283 284
253 252 253 253 255 257 259 259 260 263 266 267 271 275 280 282 285 289 289 285 284 284 282 282 279 280 281 284 286 291 289 291 289 288 287 289 291 292
251 253 253 256 257 259 261 264 267 268 266 269 272 277 281 283 282 285 286 288 287 284 282 281 280 279 280 281 292 291 294 289 294 293 292 292 294 295
254 254 257 257 259 261 263 264 266 266 267 267 270 276 280 282 283 285 285 285 286 286 284 282 280 277 274 282 282 284 284 292 296 290 290 289 287 290
258 260 262 262 263 263 264 264 265 266 266 264 267 273 278 281 285 285 284 283 282 282 284 287 291 279 280 282 282 294 293 291 292 291 294 291 291 294
262 265 266 266 265 265 264 264 265 265 266 266 267 270 275 282 287 285 282 281 280 280 283 285 283 280 276 275 281 288 291 291 286 283 283 284 284 282
265 267 269 268 267 266 265 264 265 265 266 265 265 267 271 285 286 283 281 280 280 280 281 281 281 279 281 283 286 290 293 296 297 293 287 289 286 286